(461014) = 2002 AA12 = 2014 WR392

Discovered at Campo Imperator on 2002-01-10 by CINEOS.

Orbit

Orbit type: Main Belt

Note: WebGL enabled browser required.

epoch2023-09-13.0
epoch JD2460200.5
perihelion date2023-08-24.65144
perihelion JD2460181.15144
argument of perihelion (°)312.28129
ascending node (°)106.53608
inclination (°)12.88796
eccentricity0.1790209
perihelion distance (AU)2.2132454
Tisserand w.r.t. Jupiter3.3
ΔV w.r.t. Earth (km/sec)10.1
semimajor axis (AU)2.6958610
mean anomaly (°)4.30830
mean daily motion (°/day)0.22266790
aphelion distance (AU)3.178
period (years)4.43
P-vector [x]0.49990036
P-vector [y]0.84569960
P-vector [z]0.18679352
Q-vector [x]-0.83927379
Q-vector [y]0.41977861
Q-vector [z]0.34555089
absolute magnitude16.93
phase slope0.15
uncertainty0
referenceMPEC 2024-B173
observations used196
oppositions12
arc length (days)8055
first opposition used2002
last opposition used2024
residual rms (arc-secs)0.87
perturbers coarse indicatorM-v
perturbers precise indicator003Ek
first observation date used2002-01-10.0
last observation date used2024-01-30.0
computer nameMPCLINUX
JD of orbit computation2457424.684300
perihelion JD uncertainty (days)7.7753E-05
argument of perihelion uncertainty (°)3.4531E-05
ascending node uncertainty (°)2.5606E-05
inclination uncertainty (°)7.7330E-06
eccentricity uncertainty 1.0120E-07
perihelion distance uncertainty (AU)2.7433E-07
Minimum Orbit Intersection Distances (in AU)
for orbit epoch: 2460200.5, reference: E2024-BH3
Mercury1.90806
Venus1.50291
Earth1.24727
Mars0.70775
Jupiter2.17779
Saturn6.68308
Uranus15.6118
Neptune27.3676

Observations

204 total observations over interval: 2002 01 10.02141 – 2024 01 30.186001
These data are available for download (format description).

Date (UT) J2000 RA J2000 Dec Magn Location Ref
2002 01 10.02141 08 13 48.31 +23 30 51.1 18.8 R 599 – Campo Imperatore-CINEOS MPS 47279
2002 01 10.03148 08 13 47.68 +23 30 57.1 18.7 R 599 – Campo Imperatore-CINEOS MPS 47279
2002 01 10.04067 08 13 47.24 +23 31 02.1 18.5 R 599 – Campo Imperatore-CINEOS MPS 47279
2002 01 10.98032 08 12 54.94 +23 40 05.4 19.2 R 599 – Campo Imperatore-CINEOS MPS 47279
2002 01 10.98854 08 12 54.44 +23 40 09.5 19.1 R 599 – Campo Imperatore-CINEOS MPS 47279
2002 01 10.99838 08 12 53.86 +23 40 15.2 18.9 R 599 – Campo Imperatore-CINEOS MPS 47279
2002 01 14.30965 08 09 44.61 +24 11 53.4 19.4   704 – Lincoln Laboratory ETS, New Mexico MPS 47279
2002 01 14.32475 08 09 43.72 +24 12 02.2 19.8   704 – Lincoln Laboratory ETS, New Mexico MPS 47279
2002 01 14.33999 08 09 42.79 +24 12 11.0 19.5   704 – Lincoln Laboratory ETS, New Mexico MPS 47279
2002 01 14.35718 08 09 41.75 +24 12 20.0 19.4   704 – Lincoln Laboratory ETS, New Mexico MPS 47279
2002 01 14.37236 08 09 40.83 +24 12 29.2 19.6   704 – Lincoln Laboratory ETS, New Mexico MPS 47279
2004 07 16.15814 19 04 03.70 -22 59 45.0 19.7 R 807 – Cerro Tololo Observatory, La Serena MPS 571072
2004 07 16.29357 19 03 55.87 -23 00 27.0   807 – Cerro Tololo Observatory, La Serena MPS 571072
2005 11 01.31494 03 43 28.66 -00 34 01.1 19.2 V 703 – Catalina Sky Survey MPS 571072
2005 11 01.32365 03 43 28.02 -00 33 57.4 18.6 V 703 – Catalina Sky Survey MPS 571072
2005 11 01.33237 03 43 27.69 -00 34 02.3 19.5 V 703 – Catalina Sky Survey MPS 571072
2005 11 01.34110 03 43 27.08 -00 34 01.3 19.8 V 703 – Catalina Sky Survey MPS 571072
2005 11 11.38870 03 34 38.13 -00 41 19.3 19.5 V 703 – Catalina Sky Survey MPS 571072
2005 11 11.39431 03 34 37.81 -00 41 20.1 18.9 V 703 – Catalina Sky Survey MPS 571072
2005 11 11.39993 03 34 37.48 -00 41 19.6 19.5 V 703 – Catalina Sky Survey MPS 571072
2005 11 11.40554 03 34 37.27 -00 41 20.1 19.4 V 703 – Catalina Sky Survey MPS 571072
2005 11 29.20317 03 18 13.42 +00 04 47.5 20.1 V 703 – Catalina Sky Survey MPS 571072
2005 11 29.20962 03 18 13.14 +00 04 49.2 21.1 V 703 – Catalina Sky Survey MPS 571072
2005 11 29.21606 03 18 12.85 +00 04 50.8 19.7 V 703 – Catalina Sky Survey MPS 571072
2005 11 29.22250 03 18 12.45 +00 04 54.3 19.9 V 703 – Catalina Sky Survey MPS 571072
2005 12 06.24008 03 12 48.67 +00 44 36.6 19.9 V 703 – Catalina Sky Survey MPS 571072
2005 12 06.24810 03 12 48.31 +00 44 42.1 20.6 V 703 – Catalina Sky Survey MPS 571072
2005 12 06.25615 03 12 48.02 +00 44 43.4 20.3 V 703 – Catalina Sky Survey MPS 571072
2005 12 06.26418 03 12 47.41 +00 44 49.0 19.4 V 703 – Catalina Sky Survey MPS 571072
2011 01 15.46331 09 50 17.37 +22 19 48.6 20.9 V G96 – Mt. Lemmon Survey MPS 571072
2011 01 15.47023 09 50 17.08 +22 19 53.5 20.4 V G96 – Mt. Lemmon Survey MPS 571072
2011 01 15.47714 09 50 16.87 +22 19 57.4 20.3 V G96 – Mt. Lemmon Survey MPS 571072
2011 01 15.48407 09 50 16.58 +22 20 01.7 20.6 V G96 – Mt. Lemmon Survey MPS 571072
2011 01 25.35543 09 43 26.76 +24 00 47.4 20.4 V G96 – Mt. Lemmon Survey MPS 571072
2011 01 25.36245 09 43 26.40 +24 00 51.8 20.1 V G96 – Mt. Lemmon Survey MPS 571072
2011 01 25.36946 09 43 26.04 +24 00 56.1 20.2 V G96 – Mt. Lemmon Survey MPS 571072
2011 01 25.37633 09 43 25.68 +24 01 00.2 20.2 V G96 – Mt. Lemmon Survey MPS 571072
2011 01 30.53537 09 39 06.340 +24 52 55.33 20.6 w F51 – Pan-STARRS 1, Haleakala MPS 571072
2011 01 30.55059 09 39 05.505 +24 53 04.14 20.5 w F51 – Pan-STARRS 1, Haleakala MPS 571072
2011 01 30.56793 09 39 04.559 +24 53 14.27 20.6 w F51 – Pan-STARRS 1, Haleakala MPS 571072
2011 01 30.58305 09 39 03.735 +24 53 23.12 20.6 w F51 – Pan-STARRS 1, Haleakala MPS 571072
2012 05 18.36639 15 02 34.077 -00 30 04.84 21.4 w F51 – Pan-STARRS 1, Haleakala MPS 571072
2012 05 18.37996 15 02 33.378 -00 30 04.29 21.6 w F51 – Pan-STARRS 1, Haleakala MPS 571072
2012 05 18.39356 15 02 32.668 -00 30 03.90 21.5 w F51 – Pan-STARRS 1, Haleakala MPS 571072
2012 05 18.40722 15 02 31.958 -00 30 03.19 21.5 w F51 – Pan-STARRS 1, Haleakala MPS 571072
2014 11 22.33688 05 17 31.12 +09 39 10.6 20.2 r G45 – Space Surveillance Telescope, Atom Site MPS 562900
2014 11 22.34102 05 17 30.92 +09 39 11.4 20.1 r G45 – Space Surveillance Telescope, Atom Site MPS 562900
2014 11 22.34577 05 17 30.65 +09 39 12.1 20.0 r G45 – Space Surveillance Telescope, Atom Site MPS 562900
2014 11 22.34991 05 17 30.46 +09 39 13.0 20.2 r G45 – Space Surveillance Telescope, Atom Site MPS 562900
2014 11 22.35200 05 17 30.37 +09 39 13.5 20.2 r G45 – Space Surveillance Telescope, Atom Site MPS 562900
2014 11 22.35615 05 17 30.12 +09 39 14.2 20.0 r G45 – Space Surveillance Telescope, Atom Site MPS 562900
2014 11 23.25605 05 16 45.70 +09 41 53.2 20.2 V 703 – Catalina Sky Survey MPS 571072
2014 11 23.26506 05 16 45.18 +09 41 53.0 20.1 V 703 – Catalina Sky Survey MPS 571072
2014 11 23.26956 05 16 44.96 +09 41 54.7 20.0 V 703 – Catalina Sky Survey MPS 571072
2014 11 24.38697 05 15 47.55 +09 45 20.0 20.2 V 691 – Steward Observatory, Kitt Peak-Spacewatch MPS 551903
2014 11 24.40728 05 15 46.44 +09 45 23.6 20.1 V 691 – Steward Observatory, Kitt Peak-Spacewatch MPS 551903
2014 11 24.42759 05 15 45.38 +09 45 27.7 20.0 V 691 – Steward Observatory, Kitt Peak-Spacewatch MPS 551903
2014 11 26.32222 05 14 05.42 +09 51 42.9 19.8 r G45 – Space Surveillance Telescope, Atom Site MPS 562900
2014 11 26.32636 05 14 05.22 +09 51 43.9 20.3 r G45 – Space Surveillance Telescope, Atom Site MPS 562900
2014 11 26.33111 05 14 04.92 +09 51 45.1 20.1 r G45 – Space Surveillance Telescope, Atom Site MPS 562900
2014 11 26.33526 05 14 04.68 +09 51 46.2 19.8 r G45 – Space Surveillance Telescope, Atom Site MPS 562900
2014 11 26.34149 05 14 04.29 +09 51 46.8 20.1 r G45 – Space Surveillance Telescope, Atom Site MPS 562900
2014 11 26.39119 05 14 01.863 +09 51 58.87 19.7 w F51 – Pan-STARRS 1, Haleakala MPS 551903
2014 11 26.40426 05 14 01.130 +09 52 01.59 20.0 w F51 – Pan-STARRS 1, Haleakala MPS 551903
2014 11 26.41723 05 14 00.392 +09 52 04.36 19.7 w F51 – Pan-STARRS 1, Haleakala MPS 551903
2014 11 26.43021 05 13 59.661 +09 52 07.07 19.6 w F51 – Pan-STARRS 1, Haleakala MPS 551903
2014 11 28.52974 05 12 03.776 +09 59 44.70 19.5 w F51 – Pan-STARRS 1, Haleakala MPS 571072
2014 11 28.54400 05 12 02.934 +09 59 47.93 19.7 w F51 – Pan-STARRS 1, Haleakala MPS 571072
2014 11 28.55816 05 12 02.104 +09 59 51.06 19.7 w F51 – Pan-STARRS 1, Haleakala MPS 571072
2014 11 28.57231 05 12 01.284 +09 59 54.20 19.4 w F51 – Pan-STARRS 1, Haleakala MPS 571072
2014 12 20.23984 04 50 47.08 +11 56 02.4 19.5 r G45 – Space Surveillance Telescope, Atom Site MPS 569623
2014 12 20.24398 04 50 46.84 +11 56 05.4 20.1 r G45 – Space Surveillance Telescope, Atom Site MPS 569623
2014 12 20.25274 04 50 46.30 +11 56 09.3 19.9 r G45 – Space Surveillance Telescope, Atom Site MPS 569623
2014 12 20.25911 04 50 45.94 +11 56 11.6 20.4 r G45 – Space Surveillance Telescope, Atom Site MPS 569623
2014 12 20.26325 04 50 45.68 +11 56 13.3 20.0 r G45 – Space Surveillance Telescope, Atom Site MPS 569623
2014 12 24.22685 04 47 17.41 +12 23 44.2 20.2 r G45 – Space Surveillance Telescope, Atom Site MPS 569623
2014 12 24.23100 04 47 17.23 +12 23 46.2 19.9 r G45 – Space Surveillance Telescope, Atom Site MPS 569623
2014 12 24.23976 04 47 16.79 +12 23 49.9 20.6 r G45 – Space Surveillance Telescope, Atom Site MPS 569623
2014 12 24.24612 04 47 16.40 +12 23 53.0 20.2 r G45 – Space Surveillance Telescope, Atom Site MPS 569623
2014 12 24.25027 04 47 16.20 +12 23 54.0 20.2 r G45 – Space Surveillance Telescope, Atom Site MPS 569623
2015 01 12.24016 04 36 16.746 +14 51 34.22 20.5 w F51 – Pan-STARRS 1, Haleakala MPS 571072
2015 01 12.25199 04 36 16.524 +14 51 40.23 20.4 w F51 – Pan-STARRS 1, Haleakala MPS 571072
2015 01 12.26397 04 36 16.283 +14 51 46.08 20.4 w F51 – Pan-STARRS 1, Haleakala MPS 571072
2015 01 12.27564 04 36 16.065 +14 51 51.75 20.3 w F51 – Pan-STARRS 1, Haleakala MPS 571072
2016 02 05.59543 13 40 58.516 +06 08 43.97 22.1 w F51 – Pan-STARRS 1, Haleakala MPS 679282
2016 02 05.60696 13 40 58.686 +06 08 46.99 21.5 w F51 – Pan-STARRS 1, Haleakala MPS 679282
2016 02 05.63008 13 40 59.020 +06 08 53.29 21.8 w F51 – Pan-STARRS 1, Haleakala MPS 679282
